Weather in Reshetikha

Russia / Nizhny Novgorod Oblast'     56°13′01″N   43°17′25″E
temp.,
°C
wind,
m/s
gust,
m/s
humid.,
%
clouds,
%
prec.,
mm/h
press.,
hPa
HPBL,
m
19 april, mon
mon1900:00+5ene5118299 0.0 1025546
03:00+3ene51174100 0.0 1026483
06:00+2ene51173100 0.0 1026497
09:00+3ene61066100 0.0 1027653
12:00+8e7946100 0.0 10271280
15:00+8e6939100 0.0 10271623
18:00+7e6104026 0.0 10271544
21:00+4e512450 0.0 1027576
20 april, tue
tue2000:00+3e6134898 0.0 1028669
03:00+2e6135299 0.0 1027537
06:00+1e6145762 0.0 1027534
09:00+5e7135083 0.0 1027837
12:00+9ese71242100 0.0 10261339
15:00+11ese71139100 0.0 10241638
18:00+9ese71345100 0.0 10221396
21:00+7ese7144699 0.0 1021968
21 april, wed
wed2100:00+6ese81646100 0.0 1018979
03:00+5ese91860100 0.8 10151015
06:00+2ese91994100 8.4 1012915
09:00+4se91886100 9.3 1010930
12:00+6se91885100 0.0 10091153
15:00+7se91887100 0.0 10081234
18:00+7s81482100 0.4 10101387
21:00+6ssw71282100 0.5 10131252
22 april, thu
thu2200:00+5ssw51182100 0.0 1015952
03:00+5sse4979100 0.1 1016273
06:00+5sse41182100 0.0 1017382
09:00+8s51074100 0.0 1018838
12:00+11ssw696396 0.5 10181559
15:00+11s566579 0.8 10191220
18:00+10s4873100 0.1 1020799
21:00+7s268999 0.1 1021126
23 april, fri
fri2300:00+7sse3888100 0.0 1021206
03:00+7s378912 0.0 1021185
06:00+6sse278978 0.0 1021171
09:00+12s586539 0.0 1021558
12:00+16s795181 0.7 10211913
15:00+15s495692 0.8 1020940
18:00+14sse5106043 0.4 1019491
21:00+12sse4127381 1.1 1019364